Location: Bailen
(14.1842°N, 120.7958°E)
Time: 18:23:15
(UTC+00:00)

NOAA 12 - Pass Details

Date: 12 January 2026
Orbit: 793 x 813 km, 98.6° (Epoch: 17 February)

Event Time Altitude Azimuth Distance (km) Brightness Sun altitude
Rises 21:15:21 0° 359° (N) 3,283 7.1 -16.6°
Reaches altitude 10° 21:17:48 10° 351° (N) 2,354 6.3 -16.0°
Maximum altitude 21:22:35 38° 285° (WNW) 1,193 4.5 -14.9°
Drops below altitude 10° 21:27:22 10° 218° (SW) 2,360 6.3 -13.8°
Sets 21:29:51 0° 210° (SSW) 3,292 7.2 -13.2°
